Wind_Speed
16 19 18 17 22 16 11 9 14 14 9 8 12 13 16 24 30 31 39 40 37 31 26 38 21 18 21 17 16 18 19 20
15 15 21 19 13 22 24 13 16 15 13 17 9 11 18 21 23 32 30 44 32 29 33 24 26 22 18 17 15 18 21 21
13 21 19 21 16 18 22 25 17 7 4 8 14 15 15 15 19 28 31 37 46 38 36 31 28 25 22 19 16 16 19 20
14 16 20 20 22 20 21 18 21 25 8 0 10 11 11 11 17 24 22 23 30 41 31 28 32 27 25 26 18 17 16 19
15 12 13 16 18 21 22 20 20 17 8 11 9 10 4 12 15 19 23 29 32 29 31 33 37 40 30 29 26 26 23 23
7 4 7 19 23 18 21 20 22 19 13 11 9 7 7 9 17 18 25 29 28 27 31 39 42 33 32 36 29 32 36 33
6 11 11 10 18 22 19 23 19 15 12 9 11 9 9 10 15 23 29 30 28 26 27 37 42 38 38 36 37 34 30 41
20 8 10 12 11 9 13 18 21 21 18 5 9 7 11 15 12 15 22 25 25 26 24 30 36 35 34 33 31 29 29 26
17 13 13 18 18 14 18 15 19 21 23 8 4 4 9 14 15 14 20 27 26 25 23 25 27 28 28 25 25 25 23 22
19 10 10 11 9 7 8 12 10 16 12 14 10 9 13 16 12 17 20 24 28 26 25 26 24 24 22 22 22 23 22 18
18 21 13 13 4 5 8 9 13 11 13 10 16 20 25 20 16 15 18 22 24 21 20 23 25 24 22 20 21 23 21 15
7 9 17 11 4 4 6 16 5 25 6 13 16 18 18 26 21 18 20 24 23 22 22 25 27 27 27 26 24 27 24 22
10 7 5 5 4 8 14 5 6 14 20 14 14 19 18 28 23 21 22 25 25 23 23 22 24 24 23 22 26 26 28 27
12 7 13 3 2 3 5 3 5 12 12 15 18 20 20 21 16 15 17 22 22 21 18 19 20 24 25 24 22 23 30 26
4 6 3 2 4 5 7 6 6 12 13 14 16 19 18 20 13 14 17 21 21 19 15 21 23 21 24 27 29 24 29 28
7 1 0 4 3 5 7 2 5 10 11 7 14 20 15 14 13 17 17 16 20 23 22 21 22 27 26 27 29 31 27 26
4 6 2 3 4 4 5 5 8 8 8 7 6 9 15 23 23 23 23 25 26 23 24 27 29 28 26 26 30 28 25 24
9 11 9 7 6 4 3 5 5 6 10 7 10 5 13 16 20 24 26 27 23 20 18 17 19 16 19 20 21 19 17 18
7 8 10 12 9 8 7 6 3 3 5 5 6 13 11 15 10 11 17 19 12 9 11 10 11 11 11 12 12 12 15 13
Wind_Direction
214 205 205 206 217 224 217 299 294 212 153 146 187 173 187 200 205 208 210 196 187 196 224 220 209 212 212 215 204 205 211 208
209 209 217 229 223 223 226 243 238 193 185 128 145 209 191 196 212 210 209 203 200 199 205 209 210 209 209 217 207 207 210 210
199 213 213 216 226 229 240 233 263 255 160 150 152 187 195 196 205 213 219 204 202 198 182 205 204 207 214 219 210 217 215 215
214 225 216 215 221 225 231 231 251 275 103 254 151 153 173 192 180 198 207 212 216 216 221 184 202 211 205 206 217 226 234 222
229 188 214 231 225 224 229 239 238 240 171 188 169 147 150 181 182 196 199 196 203 194 210 212 205 214 226 225 235 224 224 226
326 12 331 208 222 224 231 242 228 228 218 178 180 243 272 222 182 203 214 202 210 205 215 215 220 220 224 228 237 251 247 232
267 243 258 264 219 215 224 236 252 236 243 248 209 192 226 233 235 212 214 210 217 223 219 208 212 217 227 237 247 260 258 235
258 238 248 256 231 234 225 227 238 247 252 308 132 173 245 249 252 235 217 213 216 218 218 213 217 224 228 235 244 252 256 248
251 255 264 236 241 243 238 240 239 236 237 294 267 186 226 268 239 242 223 215 217 219 220 216 217 225 230 235 239 237 242 252
258 273 231 253 208 239 230 238 259 239 252 261 266 212 238 250 235 232 227 224 220 223 226 225 223 225 230 230 230 227 241 255
264 246 222 234 203 212 227 239 237 253 252 263 235 233 250 250 238 241 221 214 217 226 226 229 225 223 220 222 231 227 220 226
245 288 274 196 69 325 241 226 294 272 290 226 239 244 263 249 243 239 227 219 224 221 223 225 230 229 222 224 230 225 224 218
223 224 272 98 292 292 250 224 338 274 254 254 237 236 226 244 243 247 237 237 234 227 229 230 232 226 223 225 224 225 223 226
237 190 247 23 199 253 266 334 310 297 283 257 247 241 240 245 248 252 246 233 232 234 233 229 224 215 215 214 213 225 224 231
279 241 62 53 264 292 263 291 297 280 288 276 255 238 234 240 233 245 234 224 225 227 219 223 223 226 213 210 208 222 219 227
274 219 76 62 1 301 291 281 271 264 294 247 226 234 218 214 208 208 217 221 217 212 214 212 212 209 216 211 209 211 206 213
200 219 206 266 278 296 307 275 272 259 286 272 229 240 206 190 195 196 194 197 201 206 211 208 205 217 233 231 218 219 215 212
229 197 213 215 240 267 289 294 282 267 243 277 304 297 196 176 182 187 191 188 190 197 201 212 221 197 206 211 215 216 214 218
217 210 205 244 242 250 256 273 294 258 252 273 332 343 333 256 216 218 195 175 165 170 176 182 188 192 197 206 212 216 228 232
Height
3147 3150 3153 3154 3156 3158 3158 3159 3159 3155 3150 3155 3163 3161 3164 3169 3173 3173 3178 3186 3192 3201 3201 3195 3209 3211 3213 3215 3217 3221 3223 3225
3146 3149 3151 3149 3153 3155 3154 3155 3151 3148 3149 3146 3159 3164 3164 3168 3170 3171 3176 3181 3187 3195 3201 3206 3208 3212 3212 3214 3215 3218 3221 3223
3143 3145 3146 3151 3151 3151 3150 3149 3142 3139 3146 3148 3149 3161 3165 3166 3169 3170 3171 3176 3183 3190 3189 3199 3205 3209 3209 3211 3214 3217 3218 3220
3139 3141 3145 3145 3147 3151 3148 3149 3145 3141 3151 3157 3156 3158 3162 3165 3166 3169 3169 3174 3180 3184 3183 3184 3200 3205 3201 3211 3213 3215 3218 3220
3138 3140 3142 3143 3145 3146 3148 3148 3146 3146 3148 3152 3154 3157 3160 3164 3166 3168 3168 3171 3176 3178 3184 3191 3192 3198 3204 3208 3210 3212 3216 3219
3136 3137 3141 3140 3143 3145 3145 3144 3145 3145 3148 3152 3153 3155 3158 3160 3165 3167 3167 3170 3173 3176 3179 3182 3189 3195 3201 3203 3205 3208 3209 3212
3136 3139 3140 3140 3139 3141 3145 3146 3145 3145 3147 3149 3149 3151 3155 3158 3160 3162 3163 3166 3170 3171 3174 3179 3184 3189 3194 3198 3200 3201 3197 3203
3133 3138 3139 3138 3140 3142 3142 3146 3148 3148 3148 3150 3148 3149 3152 3154 3156 3158 3161 3165 3168 3170 3173 3176 3181 3185 3189 3192 3196 3196 3196 3196
3137 3136 3136 3138 3138 3139 3143 3145 3147 3148 3149 3144 3148 3150 3150 3151 3154 3158 3159 3162 3165 3170 3171 3174 3177 3181 3185 3187 3189 3190 3191 3192
3135 3136 3135 3135 3134 3137 3139 3141 3142 3142 3147 3146 3150 3146 3148 3151 3153 3154 3157 3158 3161 3165 3167 3169 3173 3177 3179 3182 3184 3186 3187 3188
3132 3129 3131 3140 3137 3139 3140 3141 3138 3137 3142 3142 3142 3145 3146 3147 3149 3151 3152 3156 3161 3161 3164 3166 3169 3171 3174 3177 3179 3182 3184 3185
3134 3131 3124 3128 3133 3138 3139 3140 3137 3134 3128 3139 3140 3143 3144 3142 3145 3148 3151 3154 3157 3157 3160 3163 3164 3167 3169 3172 3174 3177 3180 3182
3128 3131 3131 3129 3133 3135 3137 3138 3135 3132 3133 3135 3135 3137 3139 3136 3141 3143 3147 3148 3149 3152 3154 3156 3159 3162 3164 3167 3169 3172 3175 3178
3124 3126 3133 3129 3132 3135 3134 3134 3133 3131 3131 3131 3132 3132 3134 3136 3137 3138 3140 3143 3145 3148 3150 3152 3154 3157 3160 3163 3166 3167 3171 3174
3127 3128 3129 3127 3129 3130 3130 3132 3132 3129 3128 3128 3128 3129 3132 3134 3135 3136 3138 3140 3142 3144 3146 3148 3150 3152 3156 3159 3161 3163 3165 3168
3128 3129 3129 3128 3129 3129 3129 3131 3130 3127 3126 3125 3124 3126 3128 3130 3133 3135 3136 3139 3140 3141 3142 3145 3146 3148 3152 3153 3155 3159 3160 3163
3127 3128 3129 3128 3128 3128 3127 3128 3127 3126 3125 3126 3126 3125 3127 3127 3129 3130 3132 3134 3136 3138 3139 3140 3142 3146 3148 3151 3152 3155 3156 3159
3126 3127 3129 3128 3128 3128 3127 3126 3126 3125 3125 3126 3126 3125 3125 3124 3124 3126 3127 3128 3132 3134 3135 3138 3141 3141 3144 3146 3148 3151 3153 3155
3125 3125 3128 3126 3126 3126 3126 3126 3125 3125 3125 3124 3125 3126 3126 3125 3123 3126 3126 3126 3131 3135 3136 3138 3140 3142 3143 3144 3146 3148 3151 3151